This is the latest recevied weather packets stored in our database for station/object VE8SKI. If no packets are shown the sender has not sent any weather packets the latest 10 day(s).
| Time | Temp. | Humidity | Pressure | Rain* | Wind** | Luminosity | Snow |
|---|---|---|---|---|---|---|---|
| 1778091219 | 7.78° C | 42% | 1010.7 hPa | 0 mm | 3.58 m/s, 193° | - | - |
| 1778090919 | 7.78° C | 40% | 1010.7 hPa | 0 mm | 3.58 m/s, 212° | - | - |
| 1778090620 | 7.78° C | 40% | 1010.7 hPa | 0 mm | 4.47 m/s, 219° | - | - |
| 1778090320 | 7.22° C | 40% | 1010.8 hPa | 0 mm | 4.92 m/s, 188° | - | - |
| 1778090018 | 7.78° C | 41% | 1010.8 hPa | 0 mm | 4.47 m/s, 143° | - | - |
| 1778089718 | 7.78° C | 41% | 1010.9 hPa | 0 mm | 4.47 m/s, 294° | - | - |
| 1778089419 | 7.78° C | 41% | 1011.1 hPa | 0 mm | 4.02 m/s, 224° | - | - |
| 1778089119 | 7.78° C | 41% | 1011.1 hPa | 0 mm | 3.58 m/s, 243° | - | - |
| 1778088820 | 7.22° C | 41% | 1011.1 hPa | 0 mm | 4.02 m/s, 249° | - | - |
| 1778088520 | 7.22° C | 40% | 1011.2 hPa | 0 mm | 4.92 m/s, 149° | - | - |
| 1778088218 | 7.78° C | 41% | 1011.3 hPa | 0 mm | 4.47 m/s, 226° | - | - |
| 1778087918 | 7.78° C | 41% | 1011.3 hPa | 0 mm | 3.13 m/s, 156° | - | - |
| 1778087619 | 7.78° C | 42% | 1011.5 hPa | 0 mm | 3.58 m/s, 238° | - | - |
| 1778087319 | 7.78° C | 42% | 1011.6 hPa | 0 mm | 2.68 m/s, 177° | - | - |
| 1778087020 | 7.78° C | 42% | 1011.8 hPa | 0 mm | 2.68 m/s, 128° | - | - |
| 1778086720 | 7.22° C | 43% | 1011.9 hPa | 0 mm | 2.68 m/s, 186° | - | - |
| 1778086418 | 7.22° C | 44% | 1011.9 hPa | 0 mm | 2.68 m/s, 145° | - | - |
| 1778086118 | 6.67° C | 44% | 1012.1 hPa | 0 mm | 3.13 m/s, 159° | - | - |
| 1778085819 | 6.67° C | 44% | 1012.2 hPa | 0 mm | 3.58 m/s, 203° | - | - |
| 1778085519 | 6.11° C | 44% | 1012.2 hPa | 0 mm | 3.58 m/s, 224° | - | - |
| 1778085220 | 6.11° C | 44% | 1012.2 hPa | 0 mm | 3.58 m/s, 225° | - | - |
| 1778084920 | 6.11° C | 43% | 1012.3 hPa | 0 mm | 3.58 m/s, 187° | - | - |
| 1778084618 | 6.11° C | 44% | 1012.4 hPa | 0 mm | 3.13 m/s, 89° | - | - |
| 1778084339 | 6.11° C | 44% | 1012.4 hPa | 0 mm | 4.02 m/s, 212° | - | - |
| 1778084019 | 6.11° C | 45% | 1012.6 hPa | 0 mm | 4.02 m/s, 197° | - | - |
* Rain latest hour (hover to see other rain measurements)
** Current wind speed in m/s (hover to see current wind gust speed)